Regional Weather Roundup
Issued by NWS New Orleans/Baton Rouge, LA

Home | Current Version | Previous Version | Text Only | Print | Product List | Glossary Off
Versions: 1 2 3 4 5 6 7 8 9 10 11 12 13 14 15 16 17 18 19 20 21 22 23 24 25 26 27 28 29 30 31 32 33 34 35 36 37 38 39 40 41 42 43 44 45 46 47 48 49 50

428
ASUS44 KLIX 231110
RWRLIX
NEW ORLEANS REGIONAL WEATHER ROUNDUP
NATIONAL WEATHER SERVICE NEW ORLEANS LA
600 AM CDT WED APR 23 2014

NOTE: "FAIR" INDICATES FEW OR NO CLOUDS BELOW 12,000 FEET WITH NO
      SIGNIFICANT WEATHER AND/OR OBSTRUCTIONS TO VISIBILITY.
      SKY/WX - SKY CONDITION AND SIGNIFICANT WEATHER.
      TMP - AIR TEMPERATURE.     DP    - DEWPOINT TEMPERATURE.
      RH  - RELATIVE HUMIDITY.   PRES  - PRESSURE.
      HI  - HEAT INDEX.          WCI   - WIND CHILL INDEX.

*  THESE STATIONS ARE NOT NWS OR FAA STATIONS AND ARE NOT UNDER
   NWS QUALITY CONTROL.

LAZ038-040-048-061>063-065>067-069-231200-
SOUTHEAST LOUISIANA

CITY           SKY/WX    TMP DP  RH WIND       PRES   REMARKS
N.O. AUDUBON   NOT AVBL
N.O. INTL ARPT CLEAR     61  61 100 CALM      29.94S
N.O. LAKEFRONT CLEAR     67  64  90 N7        29.95R
N.O. DOWNTOWN*   N/A     66  61  82 CALM      29.95S
SLIDELL        CLEAR     58  55  90 CALM      29.94R
BATON ROUGE    CLEAR     59  55  87 CALM      29.95R
BOOTHVILLE     FOG       63  63 100 W3        29.95R VSB 1
BELLE CHASSE   FOG       57  55  94 CALM      29.94S VSB 3/4
BOGALUSA*        N/A     56  53  91 CALM      29.96R
GALLIANO*      SUNNY     54  53  97 CALM      29.94S
NEW ROADS*     FOG       56  56  99 CALM      29.96R VSB 3/4
GONZALES*        N/A     58  58 100 CALM      29.95R
HAMMOND*       CLEAR     57  55  94 CALM      29.96S FOG
HOUMA*         CLEAR     59  57  94 NW5       29.95R FOG
PORT FOURCHON* SUNNY     68  66  94 CALM      29.96R

$$

MSZ070-080>082-231200-
SOUTHERN MISSISSIPPI

CITY           SKY/WX    TMP DP  RH WIND       PRES   REMARKS
MCCOMB         CLEAR     60  57  89 N5        29.96R
GULFPORT       CLEAR     61  58  90 N5        29.93R
BILOXI         CLEAR     62  62 100 N1        29.93R
PASCAGOULA     FOG       60  60 100 N3        29.93R VSB 1/4

$$

COASTAL OBSERVATIONS
LAKE AND NEARSHORE STATIONS

STATION/POSITION TIME  TEMP    WIND        PRES    WAVE
                       AIR SEA DIR/SP/G            HT/PER
                 (UTC) (F)     (DEG/KT/KT) (MB)    (FT/S)
PASCAGOULA       1100   63     350/  4/  5 1012.8
WAVELAND YACHT   1100   63 71  320/  4/  6 1012.9
GRAND ISLE       1100   69 72  320/  2/  2 1014.3
SOUTHWEST PASS   1100   67 60  310/  8/  9 1014.0
NEW CANAL        1100   68 69  360/  4/  5 1014.2
SHELL BEACH      1100   66 67  250/  3/  4 1013.6

OFFSHORE STATIONS

STATION/POSITION TIME  TEMP    WIND        PRES    WAVE
                       AIR SEA DIR/SP/G            HT/PER
                 (UTC) (F)     (DEG/KT/KT) (MB)    (FT/S)
64 S DAUPHIN ISL 1021   68 68  310/  8/ 10 1013.5

$$




USA.gov is the U.S. government's official web portal to all federal, state and local government web resources and services.